Location: Wagman Observatory
(40.6260°N, 79.8130°W)
Time: 17:09:49
(UTC-04:00)

Daily predictions for brighter satellites

Satellite Brightness Start Highest point End
(mag) Time Altitude Azimuth Time Altitude Azimuth Time Altitude Azimuth
BREEZE-M DEB (TANK) 2.2 18:53:53 10° WSW 18:56:32 50° NNW 18:58:29 10° NE
METEOR-M 4.5 18:51:34 10° SE 18:56:35 44° ENE 19:01:38 10° N
Cosmos 2218 Rocket 4.3 18:53:52 10° SSW 19:00:00 74° W 19:06:09 10° N
Delta 2 Rocket 4.2 18:56:37 10° WSW 19:00:28 38° S 19:03:54 10° ESE
Cosmos 2221 3.0 18:56:44 10° SSE 19:00:43 38° E 19:04:45 10° NNE
Meteor 2-1 Rocket 4.3 18:55:38 10° S 19:01:24 72° E 19:07:18 10° NNE
ALOS 3.2 18:58:26 10° SE 19:02:21 27° ENE 19:06:17 10° N
Meteor 1-28 Rocket 3.1 18:58:39 10° NNE 19:02:27 83° ESE 19:06:12 10° S
Ariane Rocket 3.9 18:59:38 10° S 19:04:38 56° W 19:09:40 10° NNW
Cosmos 1315 Rocket 2.9 19:00:45 10° N 19:04:48 57° ENE 19:08:51 10° SSE
Cosmos 921 Rocket 3.0 19:01:14 10° NNW 19:05:41 74° ENE 19:10:00 10° SSE
SKYMED 2 3.8 19:03:07 10° NNE 19:07:20 48° E 19:11:31 10° S
Cosmos 1743 Rocket 4.0 19:03:01 10° NNW 19:07:24 69° W 19:11:48 10° S
Cosmos 1727 Rocket 4.1 19:01:38 10° N 19:08:01 88° E 19:14:21 10° S
GP-B 3.1 19:05:59 10° N 19:10:27 90° ENE 19:14:54 10° S
Cosmos 1484 Rocket 3.9 19:09:55 10° S 19:13:30 47° W 19:17:06 10° NNW
Aureole 2 4.4 19:12:35 10° NNW 19:15:47 82° WSW 19:19:25 10° SSE
Cosmos 1842 Rocket 4.2 19:11:55 10° SSW 19:16:19 60° W 19:20:44 10° N
Cosmos 1626 3.6 19:14:23 10° NNW 19:17:56 42° W 19:21:28 10° SSW
Cosmos 2333 4.3 19:15:16 10° NNW 19:20:58 62° ENE 19:26:39 10° SE
Cosmos 1703 4.1 19:17:52 10° NNW 19:21:42 54° W 19:25:30 10° S
BREEZE-M R/B 3.6 19:20:11 10° S 19:22:10 20° SE 19:23:15 17° E
Cosmos 1908 3.2 19:19:55 10° S 19:23:50 89° WNW 19:27:45 10° N
SJ-6B 4.4 19:25:54 15° ENE 19:25:54 15° ENE 19:27:43 10° NNE
Cosmos 2237 4.4 19:20:29 10° NNW 19:26:14 79° WSW 19:31:56 10° SSE
Cosmos 1500 Rocket 4.4 19:23:16 10° NNW 19:27:30 53° W 19:31:41 10° S
Cosmos 2237 Rocket 3.2 19:23:45 10° N 19:28:31 26° NE 19:31:45 16° E
MONITOR-E 4.1 19:26:35 10° SSE 19:29:39 87° E 19:32:45 10° N
Cosmos 1269 Rocket 4.0 19:24:35 10° S 19:29:48 71° ESE 19:35:05 10° NNE
Cosmos 44 3.2 19:25:29 10° SW 19:29:49 73° WNW 19:34:10 10° NNE
H-2A R/B 3.8 19:32:05 17° ESE 19:33:57 25° ENE 19:37:13 10° NNE
Aureole 2 Rocket 2.9 19:30:47 10° N 19:34:39 50° ENE 19:38:37 10° SE
Cosmos 2227 Rocket 3.0 19:30:56 10° SSE 19:35:36 27° ESE 19:39:15 14° NE
NOSS 0 Rocket 4.2 19:33:29 10° NNW 19:39:23 45° ENE 19:44:52 12° SE
SL-16 R/B 3.8 19:37:38 10° NNE 19:40:54 15° NE 19:41:21 15° NE
Atlas Centaur 2 4.1 19:38:41 10° SW 19:40:55 14° SSW 19:43:24 10° SSE
Gbstr 26 Del rocket 3.5 19:37:15 10° NW 19:42:15 78° NE 19:47:06 17° ESE
SPOT 3 Rocket 3.6 19:37:06 10° SSE 19:42:18 85° WSW 19:47:34 10° NNW
Iridium 4 Rocket 3.7 19:36:46 10° S 19:42:22 79° E 19:48:17 10° N
Abrixas rocket 3.8 19:39:54 10° NW 19:42:36 23° N 19:43:32 20° NE
Cosmos 1300 2.8 19:44:14 10° S 19:47:56 51° E 19:51:40 10° NNE
Cosmos 494 Rocket 4.3 19:43:38 10° S 19:48:22 40° ESE 19:52:56 11° NE
Cosmos 2360 Rocket 4.1 19:43:39 10° NW 19:48:38 33° WSW 19:53:37 10° SSW
Sich 1 3.1 19:46:16 10° N 19:50:35 54° E 19:54:54 10° SSE
Cosmos 1980 4.0 19:47:48 10° N 19:53:11 42° ENE 19:55:59 25° ESE
Resurs 01 Rocket 3.7 19:57:31 13° NNE 19:57:31 13° NNE 19:58:13 10° NNE
COSMO-SKYMED 1 3.6 19:51:11 10° N 19:55:22 48° WNW 19:59:32 10° SSW
CZ-4C R/B 2.4 19:51:03 10° SW 19:56:13 68° NW 20:02:08 10° NNE
Cosmos 1110 Rocket 4.1 19:52:21 10° N 19:57:35 54° ENE 20:01:18 19° SE
Cosmos 2098 Rocket 3.7 19:53:05 10° S 19:57:45 78° W 20:03:46 10° N
FREGAT/IRIS 4.1 20:00:58 25° N 20:00:58 25° N 20:02:28 10° N
Meteor 2-3 Rocket 4.5 19:55:19 10° N 20:00:19 30° ENE 20:00:30 30° ENE
FENGYUN 3A 3.7 19:55:31 10° SSE 20:00:55 83° WSW 20:06:22 10° NNW
Abrixas 4.0 20:00:49 10° W 20:02:09 22° NW 20:02:09 22° NW
COSMOS 2428 3.3 19:57:24 10° NNW 20:02:59 58° WSW 20:08:33 10° S
Cosmos 2333 Rocket 2.1 20:00:10 10° NNW 20:05:57 77° ENE 20:11:07 13° SSE
Cosmos 2219 3.7 20:00:37 10° SW 20:06:17 61° WNW 20:11:59 10° NNE
Cosmos 1805 Rocket 4.0 20:02:19 10° NNW 20:06:41 63° W 20:11:02 10° S
Cosmos 1535 Rocket 4.5 20:01:15 10° S 20:07:23 83° W 20:13:31 10° N
Meteor 2-10 3.8 20:04:51 10° S 20:09:53 85° E 20:15:03 10° N
Hubble Space Telescope 3.0 20:08:03 10° SSW 20:09:55 13° S 20:10:06 13° SSE
PSLV R/B 3.7 20:09:30 10° WSW 20:12:00 46° SSW 20:12:00 46° SSW
Cosmos 2297 Rocket 2.4 20:07:18 10° S 20:12:40 46° ESE 20:14:05 38° ENE
Cosmos 1666 Rocket 3.5 20:11:46 10° N 20:16:07 80° W 20:20:25 10° S
Cosmos 1726 3.7 20:16:08 10° SW 20:19:33 35° WNW 20:22:58 10° N
Cosmos 1328 Rocket 3.4 20:15:18 10° S 20:19:40 65° E 20:19:44 65° E
Cosmos 1633 Rocket 3.0 20:16:21 10° N 20:20:48 87° W 20:24:47 13° S
Envisat 4.3 20:24:49 25° NNE 20:24:49 25° NNE 20:27:22 10° N
Cosmos 2082 3.7 20:17:31 10° S 20:23:05 56° ESE 20:24:19 46° ENE
Cosmos 2251 Rocket 3.4 20:18:41 10° S 20:23:54 63° ESE 20:25:27 43° NE
FengYun 1-2 T 4.4 20:29:20 10° S 20:34:48 72° WSW 20:40:18 10° NNW
Cosmos 2219 Rocket 3.0 20:30:02 10° NW 20:35:26 50° WSW 20:40:50 10° S
Meteor 2-2 Rocket 4.3 20:31:51 10° SSW 20:37:33 77° W 20:43:12 10° N
ALOS 4.2 20:35:37 10° SSW 20:39:41 30° W 20:43:48 10° NW
Cosmos 2084 4.1 20:37:22 10° NW 20:40:52 44° WSW 20:40:52 44° WSW
Thor Agena Rocket 4.3 20:37:59 10° N 20:42:55 51° WNW 20:47:46 10° SW
USA 267 3.5 20:48:34 48° SSE 20:48:34 48° SSE 20:54:05 10° SSW
Meteor 1-27 4.3 20:50:08 10° S 20:58:18 37° N 21:01:42 10° N
BREEZE-M DEB (TANK) 3.4 20:51:54 10° WNW 21:04:20 84° W 21:04:20 84° W
MOS 1-B Rocket 4.0 21:06:25 67° SW 21:06:57 72° WSW 21:13:08 10° NNW
Cosmos 2237 Rocket 3.0 21:07:21 10° NW 21:12:48 47° WSW 21:13:39 44° SW
Cosmos 2227 Rocket 3.3 21:14:04 10° SW 21:19:24 42° WNW 21:21:11 33° NNW
USA 234 4.4 21:23:45 32° N 21:23:45 32° N 21:28:29 10° NW
SL-16 R/B 3.4 21:20:06 10° NNW 21:23:15 34° NNW 21:23:15 34° NNW
Resurs 01 Rocket 4.4 21:35:07 13° NNW 21:35:07 13° NNW 21:35:35 10° NNW
Cosmos 2297 Rocket 4.1 21:52:12 10° WSW 21:56:00 25° WNW 21:56:00 25° WNW
